Home   Weather   Bridgetown   Past weeks

Flag for Barbados Past Weather in Bridgetown, Barbados — Yesterday and Last 2 Weeks

Now
84 °F

Passing clouds.


Feels Like: 91 °F
Forecast: 79 / 85 °F
Wind: 15 mph from East

Location: Grantley Adams

Current Time: Dec 4, 2016 at 4:40:37 pm

Latest Report: Dec 4, 2016 at 4:00 pm


Visibility: N/A

Pressure: 29.89 "Hg

Humidity: 70%

Dew Point: 73 °F

Location of BridgetownLocation

Past Weather in Bridgetown — Graph

°F

Bridgetown Temperature Yesterday

Maximum temperature yesterday: 86 °F (at 10:00 am)
Minimum temperature yesterday: 79 °F (at 4:00 am)
Average temperature yesterday: 82 °F

High & Low Weather Summary for the Past Weeks

 TemperatureHumidityPressure
High88 °F (Nov 22, 12:00 pm)100% (Nov 23, 1:00 pm)30.01 "Hg (Nov 23, 1:00 pm)
Low72 °F (Nov 29, 1:00 pm)66% (Nov 20, 12:00 pm)29.77 "Hg (Nov 19, 3:00 pm)
Average81 °F81%29.86 "Hg
* Reported Nov 19 3:00 pm — Dec 4 3:00 pm, Bridgetown, Weather by CustomWeather, © 2016

Note: Actual official high and low records may vary slightly from our data, if they occured in-between our weather recording intervals... More about our weather records

Advertising

Bridgetown Weather History for the Previous 24 Hours

Scroll right to see more
 ConditionsComfort  
Time TempWeatherWind HumidityBarometerVisibility
3:00 pm
Sun, Dec 4
84 °FPassing clouds.15 mph74%29.89 "HgN/A
12:00 pm86 °FScattered clouds.14 mph70%29.92 "HgN/A
11:00 am86 °FScattered clouds.15 mph70%29.95 "HgN/A
10:00 am86 °FPassing clouds.14 mph70%29.95 "HgN/A
9:00 am86 °FPassing clouds.12 mph70%29.95 "HgN/A
8:00 am82 °FScattered clouds.14 mph74%29.95 "HgN/A
7:00 am81 °FScattered clouds.10 mph84%29.92 "HgN/A
6:00 am79 °FPassing clouds.13 mph84%29.89 "HgN/A
5:00 am77 °FPassing clouds.8 mph89%29.89 "HgN/A
4:00 am77 °FPassing clouds.8 mph89%29.86 "HgN/A
3:00 am77 °FPassing clouds.7 mph89%29.86 "HgN/A
2:00 am77 °FPassing clouds.8 mph89%29.89 "HgN/A
1:00 am77 °FPassing clouds.6 mph83%29.92 "HgN/A
12:00 am79 °FPassing clouds.9 mph79%29.92 "HgN/A
11:00 pm
Sat, Dec 3
79 °FPassing clouds.8 mph79%29.92 "HgN/A
10:00 pm79 °FPassing clouds.10 mph79%29.95 "HgN/A
9:00 pm79 °FPassing clouds.8 mph84%29.95 "HgN/A
8:00 pm79 °FPassing clouds.9 mph79%29.92 "HgN/A
7:00 pm79 °FPassing clouds.10 mph84%29.89 "HgN/A
6:00 pm79 °FPassing clouds.9 mph79%29.89 "HgN/A
5:00 pm82 °FPassing clouds.12 mph74%29.89 "HgN/A
4:00 pm84 °FScattered clouds.15 mph70%29.89 "HgN/A
Weather by CustomWeather, © 2016

See weather overviewHow to use our weather pages